Weather Roundup
Issued by NWS Springfield, MO

Home | Current Version | Previous Version | Text Only | Print | Product List | Glossary On
Versions: 1 2 3 4 5 6 7 8 9 10 11 12 13 14 15 16 17 18 19 20 21 22 23 24 25 26 27 28 29 30 31 32 33 34 35 36 37 38 39 40 41 42 43 44 45 46 47 48 49 50
000
NZUS99 KSGF 171357
HRRSGF

HOURLY WEATHER
NATIONAL WEATHER SERVICE SPRINGFIELD MO
800 AM CST TUE JAN 17 2017

......SGF CWA......

CITY           SKY/WX    TMP DP  RH WIND       PRES   REMARKS
SPRINGFIELD    CLOUDY    37  35  92 W9        30.05S WCI  30
JOPLIN         CLOUDY    37  36  96 W9        30.11R WCI  30
ROLLA          CLOUDY    39  38  96 W13G21    30.01R FOG     WCI  31
BRANSON        CLOUDY    39  36  87 W6        30.07S WCI  35

......SURROUNDING SGF CWA......

CITY           SKY/WX    TMP DP  RH WIND       PRES   REMARKS
CHANUTE        CLOUDY    36  34  92 NW8       30.11R FOG     WCI  30
PARSONS        CLOUDY    37  35  92 W6        30.12S FOG     WCI  32
EMPORIA        CLOUDY    33  32  96 W6        30.09R WCI  28
HARRISON AR    CLOUDY    39  36  89 W10       30.07R WCI  32

......KANSAS AND MISSOURI......

CITY           SKY/WX    TMP DP  RH WIND       PRES   REMARKS
KANSAS CTY INT CLOUDY    34  33  96 W7        30.05R FOG     WCI  28
SEDALIA        CLOUDY    37  36  96 W7        30.06R FOG     WCI  32
ST JOSEPH      CLOUDY    33  33 100 NW6       30.06R FOG     WCI  28
ST LOUIS       CLOUDY    44  37  76 W17G23    29.98R
WICHITA        PTCLDY    33  31  92 NW8       30.10F WCI  26
TOPEKA         CLOUDY    35  31  85 NW6       30.08R WCI  30
OLATHE         CLOUDY    33  33 100 NW7       30.06R FOG     WCI  27

......TENNESSEE......

CITY           SKY/WX    TMP DP  RH WIND       PRES   REMARKS
MEMPHIS        NOT AVBL
NASHVILLE      LGT RAIN  63  61  93 S10       30.02S FOG

......ARKANSAS.......

CITY           SKY/WX    TMP DP  RH WIND       PRES   REMARKS
FAYETTEVILLE   CLOUDY    37  36  96 W3        30.10R
FT SMITH       CLEAR     36  33  89 SW5       30.14R WCI  32
LITTLE ROCK    MOCLDY    47  42  83 NW10      30.12R

......OKLAHOMA.......

CITY           SKY/WX    TMP DP  RH WIND       PRES   REMARKS
TULSA          CLOUDY    39  35  86 NW12      30.15S WCI  32
PONCA CITY     CLOUDY    37  32  82 NW7       30.14R WCI  32
MCALESTER      CLOUDY    31  29  92 CALM      30.16R
OKLAHOMA CITY  PTCLDY    34  32  92 N8        30.14S WCI  27

......IOWA............

CITY           SKY/WX    TMP DP  RH WIND       PRES   REMARKS
DES MOINES     NOT AVBL
QUAD CITIES    CLOUDY    35  34  96 W12       29.90R FOG     WCI  27

......ILLINOIS........

CITY           SKY/WX    TMP DP  RH WIND       PRES   REMARKS
QUINCY         CLOUDY    37  36  96 W9        29.96R FOG     WCI  30
CHICAGO        CLOUDY    37  36  96 W9        29.80R FOG     WCI  30



USA.gov is the U.S. government's official web portal to all federal, state and local government web resources and services.